Stations météo

réclame
Mon MeteoGroup
London/Heathrow Intl, Grande-Bretagne (3772): Température de l'air & dewpoint: 19.08.2019 17:00:00 - 25.08.2019 17:00:00 (BST)London/Heathrow Intl, Grande-Bretagne (3772): Vitesse du vent & gusts: 19.08.2019 17:00:00 - 25.08.2019 17:00:00 (BST)London/Heathrow Intl, Grande-Bretagne (3772): Direction du vent: 19.08.2019 17:00:00 - 25.08.2019 17:00:00 (BST)London/Heathrow Intl, Grande-Bretagne (3772): reduced air pressure: 19.08.2019 17:00:00 - 25.08.2019 17:00:00 (BST)London/Heathrow Intl, Grande-Bretagne (3772): visibility: 19.08.2019 17:00:00 - 25.08.2019 17:00:00 (BST)London/Heathrow Intl, Grande-Bretagne (3772): Ensoleillement: 19.08.2019 17:00:00 - 25.08.2019 17:00:00 (BST)London/Heathrow Intl, Grande-Bretagne (3772): Quantités de précipitations: 19.08.2019 17:00:00 - 25.08.2019 17:00:00 (BST)
Date & Time tt [°C] td [°C] ff [km/h] ff [knt] fx [km/h] fx [knt] dd ppp [hPa] vv [km] sd [min] rr [mm]
25.08.2019 17:00:00 32,2 12,4 11 6 - - S 1017,3 40 60 0,0
25.08.2019 16:00:00 33,1 12,2 13 7 - - SSE 1017,3 10 60 0,0
25.08.2019 15:00:00 32,7 11,5 13 7 - - SE 1017,5 10 60 0,0
25.08.2019 14:00:00 32,7 10,6 15 8 - - SSE 1017,8 10 60 0,0
25.08.2019 13:00:00 31,9 10,3 15 8 - - - 1017,8 10 60 0,0
25.08.2019 12:00:00 30,5 13,6 5 3 - - ESE 1017,8 35 36 0,0
25.08.2019 11:00:00 27,9 13,9 8 4 - - SE 1018,0 10 54 0,0
25.08.2019 10:00:00 25,2 15,6 11 6 - - ESE 1018,0 10 60 0,0
25.08.2019 09:00:00 21,7 15,6 5 3 - - - 1017,8 6 42 0,0
25.08.2019 08:00:00 17,7 14,0 5 3 - - E 1017,6 5 6 0,0
25.08.2019 07:00:00 16,9 13,7 5 3 - - E 1017,4 6 0 0,0
25.08.2019 06:00:00 16,5 13,0 4 2 - - NE 1017,1 7 0 0,0
25.08.2019 05:00:00 17,3 13,3 5 3 - - NE 1017,1 10 0 0,0
25.08.2019 04:00:00 17,4 13,5 5 3 - - NNE 1017,2 10 0 0,0
25.08.2019 03:00:00 17,6 13,4 4 2 - - NE 1017,3 10 0 0,0
25.08.2019 02:00:00 17,9 13,2 5 3 - - NE 1017,3 10 0 0,0
25.08.2019 01:00:00 19,0 12,7 4 2 - - NNE 1017,5 10 - 0,0
25.08.2019 00:00:00 19,8 12,9 4 2 - - ENE 1017,5 21 0 0,0
24.08.2019 23:00:00 20,1 11,7 8 4 - - E 1017,4 10 0 0,0
24.08.2019 22:00:00 21,6 11,0 5 3 - - ESE 1017,3 10 0 0,0
24.08.2019 21:00:00 23,7 11,5 9 5 - - SE 1017,3 10 0 0,0
24.08.2019 20:00:00 25,4 10,7 9 5 - - S 1017,0 10 42 0,0
24.08.2019 19:00:00 26,6 10,3 15 8 - - SSW 1017,1 10 42 0,0
24.08.2019 18:00:00 28,2 10,0 18 10 - - S 1017,3 10 60 0,0
24.08.2019 17:00:00 29,3 10,8 15 8 - - S 1017,3 35 60 0,0
24.08.2019 16:00:00 29,7 10,8 16 9 - - SSE 1017,6 10 60 0,0
24.08.2019 15:00:00 28,2 10,8 15 8 - - SE 1018,1 10 54 0,0
24.08.2019 14:00:00 29,9 10,8 15 8 - - SE 1018,4 10 60 0,0
24.08.2019 13:00:00 28,5 13,8 11 6 - - ESE 1018,9 10 60 0,0
24.08.2019 12:00:00 27,3 13,7 11 6 - - SE 1019,3 28 60 0,0
24.08.2019 11:00:00 24,8 14,8 5 3 - - - 1019,9 14 60 0,0
24.08.2019 10:00:00 21,7 15,1 5 3 - - - 1020,1 9 36 0,0
24.08.2019 09:00:00 18,9 14,3 5 3 - - - 1020,3 9 30 0,0
24.08.2019 08:00:00 17,5 14,4 5 3 - - ENE 1020,1 9 42 0,0
24.08.2019 07:00:00 14,6 13,4 2 1 - - NNE 1020,3 13 0 0,0
24.08.2019 06:00:00 13,2 12,3 2 1 - - - 1020,5 10 0 0,0
24.08.2019 05:00:00 13,4 12,2 4 2 - - - 1020,5 9 0 0,0
24.08.2019 04:00:00 14,6 13,2 4 2 - - E 1020,8 10 0 0,0
24.08.2019 03:00:00 15,1 13,6 4 2 - - E 1021,1 10 0 0,0
24.08.2019 02:00:00 15,3 13,1 8 4 - - E 1021,5 10 0 0,0
24.08.2019 01:00:00 16,9 14,4 2 1 - - ENE 1021,7 10 - 0,0
24.08.2019 00:00:00 17,4 13,4 2 1 - - ENE 1021,6 35 0 0,0
23.08.2019 23:00:00 19,8 14,0 9 5 - - SW 1021,8 10 0 0,0
23.08.2019 22:00:00 20,5 13,8 9 5 - - SSW 1022,0 10 0 0,0
23.08.2019 21:00:00 21,7 13,5 13 7 - - SSW 1022,1 10 0 0,0
23.08.2019 20:00:00 23,2 14,2 15 8 - - SSW 1022,0 10 48 0,0
23.08.2019 19:00:00 25,1 13,8 11 6 - - SSW 1021,9 10 60 0,0
23.08.2019 18:00:00 26,0 13,0 11 6 - - SSW 1022,2 45 54 0,0
23.08.2019 17:00:00 26,5 13,7 11 6 - - S 1022,5 10 60 0,0
23.08.2019 16:00:00 27,1 14,2 13 7 - - SSE 1022,9 10 60 0,0
23.08.2019 15:00:00 27,0 14,8 9 5 - - SSE 1023,4 10 60 0,0
23.08.2019 14:00:00 26,4 14,8 9 5 - - SSE 1023,9 55 60 0,0
23.08.2019 13:00:00 24,4 14,4 11 6 - - S 1024,4 10 60 0,0
23.08.2019 12:00:00 23,0 14,5 8 4 - - SE 1024,9 40 60 0,0
23.08.2019 11:00:00 22,4 15,2 9 5 - - SW 1025,5 10 54 0,0
23.08.2019 10:00:00 20,1 14,4 5 3 - - - 1025,6 10 60 0,0
23.08.2019 09:00:00 19,0 15,2 5 3 - - - 1025,5 10 54 0,0
23.08.2019 08:00:00 16,6 14,8 5 3 - - SSW 1025,7 10 36 0,0
23.08.2019 07:00:00 15,0 14,3 2 1 - - S 1025,5 21 0 0,0
23.08.2019 06:00:00 13,8 13,3 5 3 - - - 1025,3 10 0 0,0
23.08.2019 05:00:00 14,0 12,8 8 4 - - S 1025,2 10 0 0,0
23.08.2019 04:00:00 14,7 13,0 4 2 - - W 1025,3 28 0 0,0
23.08.2019 03:00:00 15,4 13,7 4 2 - - W 1025,4 28 0 0,0
23.08.2019 02:00:00 15,4 13,7 5 3 - - - 1025,6 10 0 0,0
23.08.2019 01:00:00 15,9 13,5 8 4 - - WSW 1025,7 10 - 0,0
23.08.2019 00:00:00 16,7 13,5 11 6 - - SW 1025,6 28 0 0,0
22.08.2019 23:00:00 17,8 13,4 16 9 - - WSW 1025,5 10 0 0,0
22.08.2019 22:00:00 18,8 13,6 15 8 - - SW 1025,0 10 0 0,0
22.08.2019 21:00:00 20,0 13,7 13 7 - - SW 1024,9 10 0 0,0
22.08.2019 20:00:00 21,0 13,4 16 9 - - WSW 1024,3 10 18 0,0
22.08.2019 19:00:00 22,4 13,1 18 10 - - WSW 1023,9 10 18 0,0
22.08.2019 18:00:00 22,8 12,7 18 10 - - WSW 1024,0 10 30 0,0
22.08.2019 17:00:00 24,2 12,7 21 11 - - WSW 1024,1 10 30 0,0
22.08.2019 16:00:00 23,3 12,4 21 11 - - W 1024,1 10 6 0,0
22.08.2019 15:00:00 23,3 12,5 18 10 - - WSW 1024,4 40 18 0,0
22.08.2019 14:00:00 24,2 12,1 21 11 - - SW 1024,5 10 48 0,0
22.08.2019 13:00:00 23,0 11,4 21 11 - - SW 1024,8 10 60 0,0
22.08.2019 12:00:00 22,2 11,3 21 11 - - SW 1024,9 40 60 0,0
22.08.2019 11:00:00 21,0 11,4 16 9 - - WSW 1025,0 10 60 0,0
22.08.2019 10:00:00 19,0 11,5 18 10 - - WSW 1025,3 10 60 0,0
22.08.2019 09:00:00 16,8 12,5 18 10 - - WSW 1025,1 10 60 0,0
22.08.2019 08:00:00 14,4 11,9 18 10 - - SW 1025,1 10 60 0,0
22.08.2019 07:00:00 12,9 11,6 13 7 - - SSW 1024,9 10 0 0,0
22.08.2019 06:00:00 12,4 11,5 9 5 - - SSW 1024,6 10 0 0,0
22.08.2019 05:00:00 12,6 11,6 9 5 - - SSW 1024,6 10 0 0,0
22.08.2019 04:00:00 12,8 11,6 11 6 - - SW 1024,7 10 0 0,0
22.08.2019 03:00:00 13,2 11,7 11 6 - - SSW 1024,7 17 0 0,0
22.08.2019 02:00:00 13,5 11,5 9 5 - - SW 1024,9 10 0 0,0
22.08.2019 01:00:00 13,7 10,9 11 6 - - S 1024,9 10 - 0,0
22.08.2019 00:00:00 14,2 10,4 9 5 - - SW 1025,5 10 0 0,0
21.08.2019 23:00:00 15,6 9,8 15 8 - - SW 1025,7 10 0 0,0
21.08.2019 22:00:00 16,5 10,6 13 7 - - SW 1025,5 10 0 0,0
21.08.2019 21:00:00 17,7 10,2 13 7 - - S 1025,4 29 0 0,0
21.08.2019 20:00:00 18,9 9,6 21 11 - - SSW 1025,0 10 6 0,0
21.08.2019 19:00:00 20,1 10,7 21 11 - - S 1024,9 10 48 0,0
21.08.2019 18:00:00 20,9 10,5 21 11 - - S 1025,1 30 30 0,0
21.08.2019 17:00:00 22,0 10,7 16 9 - - S 1025,3 30 42 0,0
21.08.2019 16:00:00 21,4 9,5 15 8 - - SSW 1025,4 10 42 0,0
21.08.2019 15:00:00 21,8 9,5 16 9 - - SW 1026,1 10 24 0,0
21.08.2019 14:00:00 21,7 10,3 18 10 - - S 1026,3 10 36 0,0
21.08.2019 13:00:00 22,4 10,3 18 10 - - SSW 1026,7 10 42 0,0
21.08.2019 12:00:00 20,9 11,3 15 8 - - SSW 1027,3 18 54 0,0
21.08.2019 11:00:00 19,1 10,1 15 8 - - SSW 1027,6 10 54 0,0
21.08.2019 10:00:00 17,6 12,0 9 5 - - SSW 1027,7 10 6 0,0
21.08.2019 09:00:00 16,2 11,6 8 4 - - SSW 1028,0 10 60 0,0
21.08.2019 08:00:00 13,9 10,6 5 3 - - S 1027,8 24 54 0,0
21.08.2019 07:00:00 12,2 10,0 8 4 - - SSW 1027,5 10 0 0,0
21.08.2019 06:00:00 11,2 9,5 8 4 - - S 1027,3 10 0 0,0
21.08.2019 05:00:00 11,0 8,9 4 2 - - - 1027,2 10 0 0,0
21.08.2019 04:00:00 11,0 8,4 5 3 - - SW 1027,0 10 0 0,0
21.08.2019 03:00:00 12,0 8,7 5 3 - - SW 1027,0 10 0 0,0
21.08.2019 02:00:00 13,1 9,1 5 3 - - SW 1026,9 10 0 0,0
21.08.2019 01:00:00 13,9 8,7 4 2 - - - 1026,9 10 - 0,0
21.08.2019 00:00:00 14,6 8,4 11 6 - - W 1026,8 10 0 0,0
20.08.2019 23:00:00 16,0 8,3 18 10 - - W 1026,6 10 0 0,0
20.08.2019 22:00:00 16,9 8,0 16 9 - - W 1026,3 10 0 0,0
20.08.2019 21:00:00 17,2 7,1 16 9 - - W 1026,0 10 0 0,0
20.08.2019 20:00:00 18,2 6,3 11 6 - - W 1025,4 10 6 0,0
20.08.2019 19:00:00 19,5 6,1 16 9 - - W 1024,9 10 54 0,0
20.08.2019 18:00:00 20,6 5,9 22 12 - - W 1024,3 10 54 0,0
20.08.2019 17:00:00 21,0 5,5 22 12 - - W 1023,9 10 54 0,0
20.08.2019 16:00:00 21,9 5,1 22 12 - - WSW 1023,6 45 48 0,0
20.08.2019 15:00:00 22,2 6,0 18 10 - - W 1023,4 10 54 0,0
20.08.2019 14:00:00 22,1 6,9 24 13 - - W 1023,1 10 54 0,0
20.08.2019 13:00:00 19,6 6,0 18 10 - - W 1023,1 10 42 0,0
20.08.2019 12:00:00 19,2 7,0 18 10 - - W 1022,9 10 36 0,0
20.08.2019 11:00:00 19,0 9,3 16 9 - - W 1022,8 10 54 0,0
20.08.2019 10:00:00 16,7 9,5 16 9 - - WNW 1022,7 10 60 0,0
20.08.2019 09:00:00 15,3 10,4 18 10 - - W 1022,1 10 60 0,0
20.08.2019 08:00:00 13,5 11,0 13 7 - - WSW 1021,5 10 18 0,0
20.08.2019 07:00:00 12,3 10,4 9 5 - - SW 1020,9 10 0 0,0
20.08.2019 06:00:00 11,2 9,5 9 5 - - S 1020,2 24 0 0,0
20.08.2019 05:00:00 11,2 9,3 9 5 - - WSW 1019,8 10 0 0,0
20.08.2019 04:00:00 11,9 9,8 9 5 - - SW 1019,5 10 0 0,0
20.08.2019 03:00:00 12,3 9,9 13 7 - - SW 1019,3 10 0 0,0
20.08.2019 02:00:00 12,9 10,0 11 6 - - WSW 1019,2 10 0 0,0
20.08.2019 01:00:00 13,3 9,9 13 7 - - WSW 1019,4 10 - 0,0
20.08.2019 00:00:00 14,3 9,8 18 10 - - WSW 1019,2 30 0 0,0
19.08.2019 23:00:00 15,2 9,3 21 11 - - WSW 1018,7 10 0 0,0
19.08.2019 22:00:00 16,0 8,6 16 9 - - W 1018,3 10 0 0,0
19.08.2019 21:00:00 16,5 7,4 15 8 - - WSW 1017,7 40 0 0,0
19.08.2019 20:00:00 17,9 6,5 21 11 - - W 1016,8 40 42 0,0
19.08.2019 19:00:00 19,6 7,2 28 15 48 26 W 1016,2 10 60 0,0
19.08.2019 18:00:00 20,6 6,5 34 18 52 28 W 1015,6 40 54 0,0
19.08.2019 17:00:00 21,1 8,6 29 16 52 28 WSW 1015,2 10 36 0,0

tt = Température de l'air
td = dewpoint
ff = Vitesse du vent
fx = gusts
dd = Direction du vent
ppp = reduced air pressure
vv = visibility
sd = Ensoleillement
rr = Quantités de précipitations

stations d'obs. à proximité